Hourly Data Report for October 28, 2015

All times are specified in Local Standard Time (LST). Add 1 hour to adjust for Daylight Saving Time where and when it is observed.

KUGLUKTUK A
NUNAVUT

67°49'00.000" N
115°08'38.000" W
22.60 m
2300903
71938
YCO

Download Data

Hourly Data (October 2015)
Hourly Data Report for October 28, 2015
Temp Definition
°C
Dew Point Temp Definition
°C
Rel Hum Definition
%
Wind Dir Definition
10's deg

Wind Spd Definition
km/h
Visibility Definition
km
Stn Press Definition
kPa
Hmdx Definition


Wind Chill Definition


Weather Definition


TIME
00:00 Legend Double Dagger -13.4 -15.4 85 22 4 24.1 101.52   -16 LegendNANA
01:00 Legend Double Dagger -12.6 -14.8 84 23 10 24.1 101.53   -18 Snow
02:00 Legend Double Dagger -10.9 -12.4 89 25 5 24.1 101.49   -14 Snow
03:00 Legend Double Dagger -10.9 -11.7 94 25 6 2.4 101.50   -15 Snow,Fog
04:00 Legend Double Dagger -11.9 -12.8 93 17 4 1.6 101.50   -14 Fog
05:00 Legend Double Dagger -12.7 -14.0 90 22 5 0.4 101.49   -16 Freezing Fog
06:00 Legend Double Dagger -13.3 -14.8 89 30 4 2.0 101.47   -16 Snow,Fog
07:00 Legend Double Dagger -13.1 -14.6 89 21 4 8.1 101.48   -16 Snow,Fog
08:00 Legend Double Dagger -12.7 -14.2 89 21 4 16.1 101.47   -15 Snow
09:00 Legend Double Dagger -12.7 -14.2 89 24 4 16.1 101.49   -15 Snow
10:00 Legend Double Dagger -12.3 -13.8 89 36 2 24.1 101.49   -14 Snow
11:00 Legend Double Dagger -12.0 -13.3 90 36 3 24.1 101.49   -14 Snow
12:00 Legend Double Dagger -11.5 -12.8 90 9 7 24.1 101.49   -16 Snow
13:00 Legend Double Dagger -11.3 -12.6 90 9 12 24.1 101.48   -17 LegendNANA
14:00 Legend Double Dagger -10.8 -12.3 89 9 14 24.1 101.46   -17 Mainly Clear
15:00 Legend Double Dagger -10.5 -12.7 84 11 18 24.1 101.47   -18 LegendNANA
16:00 Legend Double Dagger -10.6 -13.7 78 13 17 24.1 101.46   -18 LegendNANA
17:00 Legend Double Dagger -11.6 -14.6 79 11 16 24.1 101.47   -19 Mainly Clear
18:00 Legend Double Dagger -9.9 -12.7 80 10 14 24.1 101.46   -16 Snow Grains
19:00 Legend Double Dagger -9.8 -12.3 82 13 9 24.1 101.43   -15 Snow Grains
20:00 Legend Double Dagger -8.9 -11.0 85 10 15 19.3 101.38   -15 Snow Grains
21:00 Legend Double Dagger -9.7 -12.4 81 12 13 19.3 101.37   -16 Snow Grains
22:00 Legend Double Dagger -10.0 -12.4 83 11 12 19.3 101.34   -16 Snow
23:00 Legend Double Dagger -9.8 -11.9 85 11 11 19.3 101.32   -15 Snow

Notes on Data Quality.

Legend

  • E = Estimated
  • M = Missing
  • NA = Not Available
  • ‡ = Partner data that is not subject to review by the National Climate Archives
Date modified: